Location: Unspecified
(0.0000°N, 0.0000°E)
Time: 01:25:36
(UTC+00:00)

A-11 Canister half - Pass Details

Date: 23 November 2019
Orbit: 1526 x 1683 km, 47.3° (Epoch: 10 December)

Event Time Altitude Azimuth Distance (km) Brightness Sun altitude
Rises 08:50:22 0° 241° (WSW) 4,913 11.4 42.4°
Reaches altitude 10° 08:53:55 10° 249° (WSW) 3,934 11.0 43.2°
Maximum altitude 09:02:46 35° 311° (NW) 2,489 10.1 45.2°
Drops below altitude 10° 09:11:38 10° 13° (NNE) 3,916 11.1 47.1°
Sets 09:15:12 0° 22° (NNE) 4,888 11.6 47.8°
